Weather in Tambacounda

Senegal     13°45′49″N   13°40′01″W
temp.,
°C
wind,
m/s
gust,
m/s
humid.,
%
clouds,
%
prec.,
mm/h
press.,
hPa
HPBL,
m
8 may, sat
sat800:00+34nnw311175 0.0 1010277
03:00+32wsw461847 0.0 1010309
06:00+29wsw232323 0.0 101285
09:00+32w23190 0.0 1013510
12:00+39nne2495 0.0 10121778
15:00+43ne23959 0.0 10072897
18:00+42sse24106 0.0 10064120
21:00+38sw241399 0.0 100878
9 may, sun
sun900:00+36wsw461525 0.0 1009192
03:00+30sw362716 0.0 1010215
06:00+26sw464866 0.0 1011359
09:00+29sw433669 0.0 1013540
12:00+36w3318100 0.0 10121276
15:00+40wnw331234 0.0 10082257
18:00+40nw34115 0.0 10072464
21:00+35w35155 0.0 100986
10 may, mon
mon1000:00+33wnw510196 0.0 1010485
03:00+29w36335 0.0 1010329
06:00+26w23383 0.0 1011118
09:00+29sw22305 0.0 1013611
12:00+36wsw33175 0.0 10121217
15:00+40wnw44120 0.0 10082045
18:00+40wnw35120 0.0 10072375
21:00+35wsw34150 0.0 100856
11 may, tue
tue1100:00+33wnw613186 0.0 1010491
03:00+29wnw4103188 0.0 1010371
06:00+27wsw373111 0.0 1011380
09:00+30sw55275 0.0 1013651
12:00+36sw44175 0.0 10111257
15:00+40sw331252 0.0 10081790
18:00+40w331274 0.0 10061391
21:00+36sw221558 0.0 100912
12 may, wed
wed1200:00+31w511335 0.0 1011474
03:00+28sw611425 0.0 1011613
06:00+26sw4115219 0.0 1012489
09:00+30sw683778 0.0 1013610
12:00+38sw561931 0.0 10121289
15:00+38se3418100 0.0 10101639
18:00+37sse3327100 0.0 1009699
21:00+32s353890 0.3 1011109